AirNav   Air Wisconsin pilot careers
 
 936 users online  

21CL La County Sheriff Lancaster Station Heliport
Lancaster, California, USA

GOING TO LANCASTER?


FAA INFORMATION EFFECTIVE 04 JANUARY 2018

Location

FAA Identifier: 21CL
Lat/Long: 34-42-01.0400N / 118-08-17.1100W
34-42.017333N / 118-08.285167W
34.7002889 / -118.1380861
(estimated)
Elevation: 2367 ft. / 721 m (estimated)
Variation: 14E (1985)
From city: HELI LCTD 6NM SE OF FOX FIELD.
Time zone: UTC -8 (UTC -7 during Daylight Saving Time)
Zip code: 93535

Heliport Operations

Heliport use: Private use. Permission required prior to landing
Activation date: 07/1972
Control tower: no
ARTCC: LOS ANGELES CENTER
FSS: RIVERSIDE FLIGHT SERVICE STATION
Attendance: CONTINUOUS
Wind indicator: yes
Segmented circle: no

Heliport Communications

WX ASOS at WJF (5 nm NW): PHONE 661-949-2840
WX ASOS at PMD (5 nm SE): PHONE 661-272-3798

Nearby radio navigation aids

VOR radial/distance  VOR name  Freq  Var
PMDr303/5.5PALMDALE VORTAC114.5015E
LHSr072/21.7LAKE HUGHES VORTAC108.4015E
EDWr215/26.2EDWARDS VORTAC116.4015E
VNYr016/33.5VAN NUYS VOR/DME113.1015E
GMNr084/36.2GORMAN VORTAC116.1016E
VCVr266/37.5VICTORVILLE VOR/DME109.0514E

 
NDB name  Hdg/Dist  Freq  Var  ID
EL MONTE337/37.135915EEMT . -- -

Heliport Services

Airframe service: NONE
Powerplant service: NONE

Runway Information

Helipad H1

Dimensions: 100 x 95 ft. / 30 x 29 m
Surface: concrete
Latitude: 34-42.017333N
Longitude: 118-08.285167W
Elevation: 2367.0 ft.
Traffic pattern: leftleft

Heliport Ownership and Management from official FAA records

Ownership: Publicly-owned
Owner: LOS ANGELES COUNTY
4700 RAMONA BLVD
MONTEREY PARK, CA 91754-2169
Manager: ROBERT RENTERIA
3235 LAKEWOOD BLVD
LONG BEACH, CA 90808
Phone 562-421-2701

Additional Remarks

A52-H1 MICROWAVE TWR SOUTH 400 FEET LGTD/MKD.

Instrument Procedures

There are no published instrument procedures at 21CL.

Some nearby airports with instrument procedures:

KWJF - General Wm J Fox Airfield (5 nm NW)
KPMD - Palmdale USAF Plant 42 Airport (5 nm SE)
KEDW - Edwards Air Force Base (18 nm NE)
KMHV - Mojave Air and Space Port (22 nm N)
L71 - California City Municipal Airport (28 nm N)
 
Loc | Ops | Rwys | IFR | FBO | Links
Com | Nav | Svcs | Stats | Notes


 
Area around 21CL (La County Sheriff Lancaster Station Heliport)
 
Road maps at: MapQuest Bing Google
 
Aerial photo
No photo
 
Sectional chart

 
Airport distance calculator
Flying to La County Sheriff Lancaster Station Heliport? Find the distance to fly.

From to 21CL

Sunrise and sunset
Times for 19-Jan-2018
 Local
(UTC-8)
 Zulu
(UTC)
Morning civil twilight06:3214:32
Sunrise06:5914:59
Sunset17:0801:08
Evening civil twilight17:3501:35

Current date and time
Zulu (UTC)  20-Jan-2018 00:43:38
Local (UTC-8)  19-Jan-2018 16:43:38
 
METAR
KWJF 
4nm W 
200019Z 27020KT 10SM FEW028 BKN037 OVC047 09/02 A2991 RMK AO2 PK WND 27028/0007 T00890017
KPMD 
5nm SE 
192353Z AUTO 30018KT 10SM -RA BKN018 OVC024 09/05 A2990 RMK AO2 RAB09 SLP115 P0000 60000 T00890050 10144 20089 55013
KEDW 
17nm NE 
200003Z 29014KT 30SM -SHRA BKN025 OVC037 11/03 A2987 RMK AO2A SLP109
TAF
KWJF 
4nm W 
192228Z 1922/2018 26015G25KT P6SM BKN035 BKN050 FM200000 27022G32KT P6SM BKN100 FM200600 27018G28KT P6SM SCT120
KPMD 
5nm SE 
192107Z 1921/2018 26014G22KT P6SM BKN025 OVC050 FM192300 27020G28KT P6SM SCT050 BKN100 FM200600 27015G25KT P6SM SCT120
KEDW 
17nm NE 
191804Z 1918/2024 26012G18KT 9999 FEW040 SCT150 BKN300 QNH2992INS BECMG 1920/1921 26015G25KT 9999 VCSH BKN035 BKN150 BKN200 510009 QNH2990INS TEMPO 1922/2003 26020G30KT 530009 BECMG 2002/2003 26015G25KT 9999 NSW BKN050 BKN250 610509 520009 QNH2992INS BECMG 2011/2012 26012G20KT 9999 SCT150 BKN250 510009 QNH2997INS BECMG 2017/2018 27020G30KT 9999 FEW150 520009 QNH2996INS TX15/1921Z TN04/2012Z
NOTAMs
Click for the latest NOTAMs
NOTAMs are issued by the DoD/FAA and will open in a separate window not controlled by AirNav.

 

 
 

Would you like to see your business listed on this page?

 If your business provides an interesting product or service to pilots, flight crews, aircraft, or users of the La County Sheriff Lancaster Station Heliport, you should consider listing it here.  To start the listing process, click on the button below
 
Add a business
 

Other Pages about La County Sheriff Lancaster Station Heliport

Update a link
 
Copyright © AirNav, LLC. All rights reserved. Privacy Policy  Contact